Regional Weather Roundup
Issued by NWS Portland, ME

Home | Current Version | Previous Version | Text Only | Print | Product List | Glossary On
Versions: 1 2 3 4 5 6 7 8 9 10 11 12 13 14 15 16 17 18 19 20 21 22 23 24 25 26 27 28 29 30 31 32 33 34 35 36 37 38 39 40 41 42 43 44 45 46 47 48 49 50
000
ASUS41 KGYX 301510
RWRGYX
WEATHER ROUNDUP FOR MAINE AND NEW HAMPSHIRE
NATIONAL WEATHER SERVICE GRAY ME
1100 AM EDT SUN APR 30 2017

MEZ002-005-006-010-012-015-018-020-021-024-026-027-029-301600-
MAINE

CITY           SKY/WX    TMP DP  RH WIND       PRES   REMARKS
PORTLAND       MOSUNNY   51  27  39 VRB6      30.29F
SANFORD        PTSUNNY   52  29  41 E6        30.28F
BAR HARBOR     SUNNY     48  26  42 N8        30.27R
WISCASSET      SUNNY     51  28  41 CALM      30.29F
ROCKLAND       SUNNY     49  27  42 E8        30.28R
FRYEBURG       CLOUDY    49  25  39 CALM      30.28F
LEWISTONAUBURN SUNNY     49  28  44 VRB6      30.29S
AUGUSTA        SUNNY     47  24  40 N8        30.27F
BANGOR         PTSUNNY   48  25  40 N13       30.27S
GREENVILLE       N/A     42  23  46 NW14G22   30.22S
MILLINOCKET    CLOUDY    49  24  37 N12G20    30.25F
HOULTON        SUNNY     47  23  38 N17G24    30.22F
PRESQUE ISLE   SUNNY     45  23  42 N15G21    30.26F
FRENCHVILLE    SUNNY     43  20  39 NW17G26   30.26R
CARIBOU        SUNNY     46  24  42 N17G23    30.25R
$$

NHZ002-005-008-009-011-012-014-301600-
NEW HAMPSHIRE

CITY           SKY/WX    TMP DP  RH WIND       PRES   REMARKS
PORTSMOUTH     PTSUNNY   50  30  46 E8        30.29S
ROCHESTER      MOSUNNY   51  27  39 CALM      30.27F
NASHUA         MOSUNNY   54  29  38 SE8         N/A
MANCHESTER     MOSUNNY   54  25  32 W5        30.26F
CONCORD        SUNNY     53  27  36 N6        30.27F
LACONIA        PTSUNNY   48  27  44 NE5       30.27F
PLYMOUTH       FAIR      50  27  41 CALM      30.26F
BERLIN         CLOUDY    45  21  38 CALM      30.29S
WHITEFIELD     CLOUDY    45  24  43 CALM      30.28F
JAFFREY        SUNNY     54  29  38 VRB3      30.25F
KEENE          MOSUNNY   52  27  38 CALM      30.26F
LEBANON        CLOUDY    48  26  42 VRB5      30.27F
MT WASHINGTON  PTSUNNY   43   3  19 NW21        N/A
$$

VTZ005-007-008-301600-
VERMONT

CITY           SKY/WX    TMP DP  RH WIND       PRES   REMARKS
ST JOHNSBURY     N/A     44  23  43 MISG      30.27F
MONTPELIER     CLOUDY    41  25  53 NE8       30.32F
BURLINGTON     CLOUDY    44  25  47 NW9       30.34R
$$

MAZ007-012-024-CTZ003-RIZ002-NYZ038-NYZ072-301600-
SOUTHERN NEW ENGLAND AND NY

CITY           SKY/WX    TMP DP  RH WIND       PRES   REMARKS
BOSTON         PTSUNNY   49  34  56 E16       30.31R
WORCESTER      SUNNY     52  27  38 VRB5      30.25F
NANTUCKET      MOSUNNY   52  34  50 NE17      30.29S
PROVIDENCE     MOSUNNY   60  35  39 SE7       30.27F
HARTFORD       PTSUNNY   59  33  37 N7        30.27R
ALBANY         CLOUDY    49  29  46 N8        30.29R
NEW YORK CITY  CLOUDY    60  42  51 NE14      30.23F
$$

ANZ081-ANZ082-ANZ150-NHZ014-MEZ023>029-301600-
COASTAL MARINE OBSERVATIONS

STATION/POSITION TIME  TEMP    WIND        PRES    WAVE
                       AIR SEA DIR/SP/G            HT/PER
                 (UTC) (F)     (DEG/KT/KT) (MB)    (FT/S)
MOUNT DESERT ROC 1500   41                 1025.7R
MATINICUS ROCK   1400   42      10/ 11/ 12 1025.1R
ISLE OF SHOALS   1400   44      60/ 12/ 13 1026.0S
JEFFREYS LEDGE   1406      45                N/A     4/ 5
CASHES LEDGE BUO 1350   43 43              1026.1    4/ 5
GEORGES BANK BUO 1350   42 40              1023.7    5/ 8
$$

.............KEY..............
   WCI - WIND CHILL
   TC  - TEMPERATURE IN CELSIUS
   VSB - VISIBILITY IN MILES
   HX  - HEAT INDEX
   FAIR- INDICATES FEW OR NO CLOUDS BELOW 12,000 FT, WITH NO
         SIGNIFICANT WEATHER AND/OR OBSTRUCTIONS TO VISIBILITY.





USA.gov is the U.S. government's official web portal to all federal, state and local government web resources and services.